EW8749 Weather Reports


Display with metric or nautical units.
time (UTC)temp
F
wind
direction
speed
MPH
gust
MPH
rain 1hr
in
rain 24hr
in
rain mn
in
humidity
%
barometer
mb
20260903200040 46 308 0.0 0.0 0.00 0.01 0.00 91 1021.6
20260903194537 46 297 0.0 0.0 0.00 0.04 0.00 91 1021.5
20260903193036 46 228 0.0 0.0 0.00 0.04 0.00 91 1021.3
20260903191540 46 303 2.0 5.0 0.00 0.04 0.00 91 1021.2
20260903190032 46 247 1.0 6.0 0.00 0.04 0.00 91 1021.1
20260903184530 46 277 1.0 6.0 0.00 0.05 0.00 91 1021.1
20260903183030 46 285 1.0 5.0 0.00 0.05 0.00 90 1020.9
20260903181527 47 313 1.0 5.0 0.00 0.05 0.00 90 1021.0
20260903180032 47 273 0.0 6.0 0.00 0.05 0.00 90 1020.8
20260903174523 47 297 1.0 7.0 0.00 0.08 0.00 90 1020.7
20260903173019 47 306 1.0 7.0 0.00 0.08 0.00 89 1020.6
20260903171517 47 289 1.0 9.0 0.00 0.08 0.00 89 1020.5
20260903170017 47 267 2.0 7.0 0.00 0.08 0.00 89 1020.3
20260903164513 47 287 2.0 4.0 0.00 0.09 0.00 89 1020.2
20260903163009 48 284 1.0 4.0 0.00 0.09 0.00 89 1020.3
20260903160008 49 329 0.0 3.0 0.00 0.10 0.00 89 1020.6
20260903154505 49 288 2.0 6.0 0.00 0.10 0.00 89 1020.8
20260903153004 48 320 0.0 5.0 0.00 0.10 0.00 88 1020.6
20260903151503 48 301 1.0 6.0 0.00 0.10 0.00 87 1020.7
20260903144557 49 283 2.0 7.0 0.00 0.10 0.00 86 1020.6
20260903143056 49 239 0.0 1.0 0.00 0.10 0.00 87 1020.7
20260903141553 49 274 1.0 5.0 0.00 0.10 0.00 86 1020.7
20260903140052 49 339 0.0 6.0 0.00 0.10 0.00 85 1020.7
20260903134611 49 311 2.0 9.0 0.00 0.16 0.10 85 1020.8
20260903133053 49 293 0.0 5.0 0.00 0.16 0.10 85 1020.9
20260903131548 49 302 2.0 7.0 0.00 0.16 0.10 86 1020.7
20260903130050 48 289 0.0 4.0 0.00 0.16 0.10 86 1020.6
20260903124552 49 237 1.0 5.0 0.00 0.17 0.10 86 1020.6
20260903123044 49 264 0.0 7.0 0.00 0.17 0.10 85 1020.5
20260903121551 49 294 1.0 6.0 0.00 0.17 0.10 86 1020.4
20260903120056 49 240 1.0 9.0 0.00 0.17 0.10 85 1020.4
20260903114557 49 248 0.0 1.0 0.00 0.17 0.10 85 1020.4
20260903113038 49 299 0.0 4.0 0.00 0.17 0.10 84 1020.3
20260903111538 49 270 0.0 6.0 0.00 0.17 0.10 84 1020.2
20260903110036 49 246 0.0 9.0 0.00 0.17 0.10 84 1020.1
20260903104534 49 298 0.0 7.0 0.00 0.17 0.10 84 1019.9
20260903103032 49 203 1.0 8.0 0.00 0.17 0.10 83 1019.6
20260903101529 50 247 0.0 7.0 0.00 0.17 0.10 82 1019.4
20260903100027 50 260 3.0 10.0 0.00 0.17 0.10 81 1019.4
20260903094524 50 257 3.0 8.0 0.00 0.17 0.10 80 1019.1
20260903093021 50 223 0.0 10.0 0.00 0.17 0.10 80 1018.9
20260903091519 50 239 0.0 3.0 0.00 0.17 0.10 80 1018.7
20260903090119 51 256 3.0 9.0 0.00 0.17 0.10 78 1018.5
20260903084515 51 308 2.0 10.0 0.00 0.17 0.10 77 1018.2
20260903083012 51 263 3.0 11.0 0.00 0.17 0.10 76 1017.8
20260903081511 51 280 1.0 7.0 0.00 0.17 0.10 76 1017.6
20260903080008 51 273 0.0 7.0 0.00 0.17 0.10 76 1017.4
20260903074507 51 303 0.0 10.0 0.00 0.17 0.10 76 1017.2
20260903073004 52 293 0.0 0.0 0.00 0.17 0.10 73 1017.1
20260903071604 52 249 0.0 4.0 0.00 0.17 0.10 72 1016.8
20260903070112 53 233 0.0 1.0 0.00 0.17 0.10 70 1016.6
20260903064555 54 247 1.0 8.0 0.00 0.17 0.10 67 1016.4
20260903063104 56 229 0.0 9.0 0.00 0.17 0.10 66 1016.3
20260903061605 56 231 0.0 9.0 0.00 0.17 0.10 65 1015.9
20260903060051 56 247 0.0 9.0 0.00 0.17 0.10 65 1015.9
20260903054549 56 287 0.0 9.0 0.00 0.17 0.10 64 1015.6
20260903053048 56 229 0.0 12.0 0.00 0.17 0.10 63 1015.4
20260903051545 57 247 0.0 8.0 0.00 0.17 0.10 63 1015.1
20260903050044 57 222 4.0 14.0 0.00 0.17 0.10 63 1014.8
20260903044551 57 245 1.0 13.0 0.00 0.17 0.10 63 1014.7
20260903043040 57 243 1.0 19.0 0.00 0.17 0.10 64 1014.5
20260903041546 57 178 3.0 14.0 0.00 0.17 0.10 61 1014.2
20260903040037 57 230 3.0 15.0 0.00 0.17 0.10 62 1014.0
20260903034535 57 332 1.0 17.0 0.00 0.17 0.10 62 1013.7
20260903033034 57 258 1.0 17.0 0.00 0.17 0.10 62 1013.7
20260903031533 57 248 2.0 14.0 0.00 0.17 0.10 63 1013.5
20260903030034 57 308 0.0 12.0 0.00 0.17 0.10 63 1013.5
20260903023033 57 273 1.0 15.0 0.00 0.17 0.10 63 1013.4
20260903021529 57 197 2.0 13.0 0.00 0.17 0.10 60 1013.4
20260903020036 58 290 1.0 16.0 0.00 0.17 0.10 61 1013.6
20260903014525 58 247 0.0 13.0 0.00 0.17 0.10 62 1013.3
20260903013023 58 276 1.0 17.0 0.01 0.17 0.10 62 1013.4
20260903011521 58 290 0.0 11.0 0.01 0.17 0.10 61 1013.3
20260903010019 58 242 0.0 17.0 0.01 0.17 0.10 61 1013.2
20260903004519 58 270 1.0 17.0 0.01 0.17 0.10 62 1013.0
20260903003016 58 269 0.0 15.0 0.00 0.17 0.09 60 1013.0
20260903001514 58 276 0.0 18.0 0.00 0.17 0.09 62 1013.2
20260903000014 58 285 8.0 15.0 0.00 0.17 0.09 63 1013.1
20260902234511 58 242 2.0 17.0 0.00 0.17 0.09 66 1012.9
20260902233010 58 242 1.0 15.0 0.00 0.17 0.09 68 1012.8
20260902231514 58 292 1.0 10.0 0.00 0.17 0.09 67 1012.7
20260902230006 58 267 2.0 12.0 0.00 0.17 0.09 70 1012.3
20260902224503 57 281 3.0 15.0 0.00 0.17 0.09 71 1012.1
20260902223002 57 300 7.0 17.0 0.00 0.17 0.09 74 1011.5
20260902221558 56 289 5.0 19.0 0.00 0.17 0.09 78 1011.4
20260902220058 56 232 2.0 11.0 0.00 0.17 0.09 85 1011.3
20260902214556 55 314 2.0 7.0 0.00 0.17 0.09 87 1011.0
20260902213051 53 245 2.0 10.0 0.00 0.17 0.09 91 1010.3
20260902211550 53 299 1.0 10.0 0.00 0.17 0.09 91 1010.3
20260902210048 53 254 4.0 10.0 0.00 0.17 0.09 91 1010.4
20260902204551 53 314 0.0 6.0 0.01 0.17 0.09 91 1010.3
20260902201554 53 299 2.0 7.0 0.01 0.17 0.09 91 1010.1